Location: Unspecified
(43.3830°N, 0.0000°E)
Time: 17:00:02
(UTC+00:00)

Vanguard 2 - Pass Details

Date: 21 June 2019
Orbit: 553 x 2938 km, 32.9° (Epoch: 17 August)

Event Time Altitude Azimuth Distance (km) Brightness Sun altitude
Rises 09:40:44 0° 244° (WSW) 3,434 10.6 54.9°
Reaches altitude 10° 09:42:59 10° 236° (SW) 2,717 10.3 55.2°
Maximum altitude 09:49:09 40° 168° (SSE) 1,863 10.5 56.3°
Drops below altitude 10° 09:59:00 10° 105° (ESE) 4,338 12.0 57.8°
Sets 10:03:36 0° 99° (E) 5,737 12.4 58.6°
